Theta_e
303 303 303 303 302 303 304 306 307 309 311 314 316 318 319 321 322 322 322 323 324 324 324 325 325 327 327 327 327 326 325 324 323 320 319 316 312 312 310 308 307 306 306 306 304 303 302 303 303 304 305 303 300 298 297 297 297 296 296 296 296 295
302 301 301 301 301 302 302 303 305 305 307 310 312 316 318 318 319 319 320 322 322 322 323 324 325 325 325 325 325 323 323 322 320 318 315 312 310 310 309 307 305 303 301 300 300 300 300 300 301 302 299 298 297 296 295 295 296 295 294 293 293 293
300 299 299 299 300 301 301 302 303 304 306 307 309 311 313 315 317 318 319 320 320 320 321 321 322 323 324 324 323 322 322 320 316 316 312 310 309 309 308 306 305 303 300 299 298 298 297 299 298 297 296 295 294 294 295 294 294 293 292 291 291 292
301 300 297 297 299 301 301 302 303 304 305 307 308 310 312 313 314 315 317 318 319 318 319 320 320 321 322 322 321 321 319 316 314 313 311 309 307 307 306 304 303 301 299 299 297 296 297 297 295 295 294 293 293 293 293 293 293 292 291 291 290 291
301 301 299 298 299 302 302 303 304 305 305 306 308 309 310 312 313 314 314 315 316 316 317 318 317 317 317 317 316 316 313 311 310 308 307 306 303 302 302 301 300 298 297 296 296 297 296 295 294 294 293 293 292 291 292 293 292 292 291 290 290 290
297 296 297 297 299 301 302 304 305 305 305 306 307 307 309 309 310 311 311 312 312 314 313 313 313 313 313 313 312 311 309 307 305 304 305 303 302 299 296 297 298 297 297 296 295 295 294 293 293 293 293 292 292 291 291 292 292 292 291 290 289 289
297 298 299 299 300 301 302 303 304 305 305 305 305 306 307 308 309 308 308 308 308 308 309 309 308 309 309 309 307 306 303 302 301 301 300 299 299 299 296 295 296 298 297 295 294 294 293 293 292 292 292 292 292 291 291 291 291 290 290 289 289 287
299 299 299 300 299 300 302 303 304 304 305 305 305 305 305 305 305 306 307 306 305 304 305 305 305 306 306 304 302 300 298 297 297 297 297 298 297 295 296 296 297 297 296 295 294 293 293 292 292 291 291 291 291 291 291 290 290 289 288 288 287 287
298 299 300 300 300 299 300 301 302 302 303 303 303 303 303 302 303 303 303 304 304 303 303 302 303 303 302 300 298 296 296 296 295 295 296 297 297 295 294 296 296 295 295 294 293 292 291 291 291 291 290 290 290 290 289 288 288 287 287 287 286 287
301 300 300 300 299 300 299 299 301 301 301 301 299 298 298 298 299 300 300 300 300 300 299 299 297 297 297 296 295 295 295 294 294 295 295 295 295 295 295 296 295 293 293 292 291 291 291 290 290 290 290 290 290 289 288 288 286 286 285 285 285 285
301 301 300 300 299 298 298 297 297 298 298 297 296 297 298 297 297 297 297 297 298 298 297 296 295 294 294 293 293 292 293 293 293 293 293 295 294 294 295 294 291 290 290 290 290 290 290 290 290 290 289 289 288 288 287 287 286 285 285 284 284 284
301 301 301 300 298 298 298 298 297 297 296 296 294 295 294 295 296 296 295 296 295 293 294 294 293 292 292 293 293 292 291 291 292 292 291 293 294 292 290 289 289 290 289 289 288 289 289 289 289 287 288 288 288 287 287 286 286 285 284 283 283 283
301 301 300 300 299 298 298 298 298 297 296 296 294 294 294 294 294 295 295 295 293 292 292 292 291 291 292 292 292 291 290 290 290 290 290 290 289 288 288 288 288 288 288 288 288 287 288 288 287 286 288 288 288 287 286 286 285 285 284 283 282 282
301 300 300 300 299 298 297 298 298 297 296 296 294 294 294 294 294 294 294 294 292 291 291 291 290 291 291 290 289 290 290 289 288 288 288 288 287 287 287 287 287 288 288 288 287 287 287 287 286 288 288 288 287 287 286 286 285 284 284 283 282 282
302 302 302 300 300 299 298 298 298 297 297 296 296 294 292 294 294 294 293 291 291 290 291 290 290 289 289 289 288 288 288 288 287 287 286 286 286 286 286 286 286 286 287 287 287 287 286 286 287 288 288 287 287 287 286 285 285 284 283 282 282 281
303 302 302 301 301 300 299 298 298 298 298 297 295 293 292 293 293 294 292 291 290 290 290 290 289 289 288 288 287 287 287 287 287 287 287 286 285 285 285 285 285 286 286 287 287 287 286 286 287 288 287 287 286 286 285 284 284 283 282 282 281 281
303 302 300 300 300 300 298 297 297 297 297 296 294 294 293 294 293 293 292 291 291 290 290 289 289 288 287 287 287 286 287 287 286 286 285 285 285 285 284 284 285 285 286 287 287 287 286 286 287 287 287 287 286 285 284 283 283 282 281 281 281 281
302 302 302 301 300 298 297 296 296 296 295 294 293 293 293 293 293 293 292 291 291 290 290 289 289 289 288 287 286 286 286 286 285 285 285 285 285 284 284 284 285 285 286 286 286 286 285 286 287 287 287 286 286 285 283 282 282 281 281 280 280 280
301 302 302 299 299 297 296 296 295 295 294 293 293 292 292 293 293 293 292 291 290 290 290 290 289 288 288 287 286 286 286 285 285 285 285 284 284 284 283 284 284 285 285 286 286 286 285 285 286 286 286 286 285 283 282 282 281 280 280 280 280 280
301 299 300 298 297 297 296 295 294 294 293 292 292 291 292 292 293 294 292 292 291 290 290 290 289 287 286 286 286 286 286 286 286 285 285 284 283 283 283 283 284 284 285 285 286 286 285 284 285 285 286 285 284 283 282 281 280 280 279 279 279 279
298 297 296 297 295 295 295 294 293 293 292 292 292 291 291 291 293 294 293 292 291 290 290 289 288 287 287 286 286 286 286 285 284 284 284 284 284 283 283 283 283 283 284 285 285 285 285 284 284 285 285 284 283 282 282 281 280 279 278 278 278 278
294 294 295 295 296 294 294 293 293 291 292 291 292 291 291 291 293 295 294 293 291 290 289 288 287 287 286 286 286 286 285 285 284 283 283 283 283 282 282 282 282 281 282 283 284 284 285 284 284 284 284 284 283 282 282 281 280 278 278 278 277 277
297 297 296 296 294 292 292 292 292 291 291 291 290 290 291 292 293 294 293 293 290 289 288 287 287 286 286 286 286 285 284 284 283 283 282 281 281 281 280 280 280 279 279 280 282 283 284 284 283 283 284 284 283 283 281 280 280 279 278 278 277 277
294 293 293 293 292 291 292 292 291 291 291 290 290 291 292 292 292 292 292 291 290 288 287 286 286 286 286 286 285 284 283 283 283 282 281 281 280 279 278 278 278 278 278 279 279 281 282 283 283 283 283 283 283 283 282 280 280 279 278 277 276 276
293 293 292 291 291 291 291 290 289 290 289 289 290 291 291 291 290 290 289 288 287 286 286 285 285 285 285 284 284 283 282 281 281 280 280 279 278 278 277 277 277 277 277 277 278 279 280 282 283 283 282 283 283 283 282 281 280 280 278 277 276 276
292 291 289 290 290 290 290 289 288 288 288 289 291 290 289 288 287 287 286 285 285 285 285 284 284 284 283 283 283 282 281 280 280 279 279 279 278 277 276 276 276 277 276 276 277 278 279 281 282 283 282 282 283 283 282 281 281 281 278 277 277 277
290 289 288 289 288 289 288 289 288 287 287 289 288 287 287 287 286 286 285 284 284 284 283 283 283 283 283 282 282 281 280 279 279 278 278 278 278 277 277 276 276 277 277 277 277 277 278 279 281 282 282 282 282 283 283 282 281 281 279 276 277 277
287 287 287 287 288 289 288 289 288 287 288 287 287 287 286 285 285 284 284 283 283 283 282 282 281 281 281 281 282 281 280 279 278 278 278 278 278 278 277 276 276 277 277 277 277 277 277 277 278 279 280 282 282 282 282 282 282 281 279 277 277 277
286 286 286 286 286 286 287 287 288 287 286 285 286 285 285 284 284 283 283 282 282 281 281 281 280 280 280 280 281 281 280 280 279 279 278 278 278 278 278 277 277 277 277 277 277 276 276 275 276 277 278 280 281 281 281 281 281 280 279 276 276 277
286 285 285 286 286 285 286 285 284 284 284 284 284 284 284 283 283 283 282 281 280 280 280 280 277 278 279 279 280 280 279 279 280 279 278 278 278 278 278 277 277 277 277 277 276 275 274 274 275 275 276 278 279 280 280 280 279 279 277 275 276 276
284 284 284 284 284 283 283 282 281 282 283 283 283 283 283 283 281 282 280 280 280 280 279 280 279 279 279 279 279 280 280 279 279 279 279 280 281 281 280 279 279 279 278 277 276 274 273 274 274 275 278 278 280 278 278 278 277 278 276 276 276 272
283 283 282 281 281 281 280 279 279 280 281 282 282 283 283 281 281 280 279 279 279 279 279 279 279 279 279 278 278 278 278 277 279 280 280 279 280 280 280 280 280 280 279 278 278 277 276 274 275 278 279 280 280 280 280 279 279 279 276 277 276 271
280 281 280 280 279 279 278 278 277 278 279 280 281 282 281 280 281 280 279 278 279 278 278 278 278 278 278 278 278 277 277 277 277 278 278 279 280 280 279 280 281 280 280 278 277 277 278 277 277 279 280 280 281 281 280 280 279 279 278 278 273 269
280 280 279 279 277 276 276 276 276 276 277 278 279 280 281 281 281 280 279 278 278 276 277 278 277 277 277 277 277 277 277 277 276 276 278 278 278 279 279 279 280 280 281 280 279 277 277 278 279 280 280 280 281 281 280 279 279 279 278 278 274 268
280 278 277 277 276 275 275 275 274 275 275 276 277 278 279 279 280 280 278 278 277 276 276 276 276 276 276 276 275 275 276 276 277 276 276 277 278 278 279 279 279 279 280 280 279 279 278 278 279 280 281 280 281 280 280 279 280 279 279 278 271 268
277 276 275 274 274 274 274 273 272 273 273 274 275 276 277 277 278 278 278 277 276 276 276 276 276 276 276 276 276 276 276 276 277 277 278 276 276 276 278 279 279 279 280 280 279 279 279 279 280 281 281 281 281 281 280 280 278 280 280 276 270 269
274 274 273 272 272 273 272 271 270 269 270 272 274 275 275 275 276 277 274 272 274 277 276 277 276 276 276 276 275 275 275 276 276 277 277 277 277 276 276 276 277 279 280 278 279 279 279 280 281 281 281 281 281 281 281 280 277 276 276 275 271 268
273 272 272 271 272 271 271 270 269 269 269 270 272 274 274 274 275 276 277 275 274 276 277 276 276 276 276 275 275 276 276 276 276 276 276 277 277 277 276 276 277 277 278 278 278 279 280 281 281 281 281 281 281 281 281 276 274 274 274 272 270 267
Wind_Speed
8 7 7 7 7 7 6 5 6 7 9 10 12 14 13 13 12 12 12 15 11 11 15 16 15 14 14 14 13 12 13 12 11 10 11 9 8 10 11 9 8 9 9 9 8 9 9 9 8 9 9 8 7 7 7 7 6 6 6 5 5 4
4 5 6 6 6 6 6 6 5 7 7 7 8 8 9 11 13 12 14 15 11 10 10 13 13 12 13 13 13 12 12 13 12 12 10 11 9 9 9 11 10 10 9 6 7 9 9 9 9 9 7 7 7 7 7 6 7 6 6 5 4 3
4 4 5 6 5 5 6 6 7 6 6 7 8 10 11 13 13 13 12 11 11 10 11 11 10 11 11 12 12 12 12 12 10 11 9 8 8 9 8 9 10 9 10 10 8 9 9 10 9 7 7 6 8 6 7 7 7 7 6 6 6 4
4 4 4 4 5 5 6 6 6 7 8 8 8 9 11 12 11 10 10 9 9 10 10 10 9 9 9 11 11 11 11 10 11 10 10 12 11 11 10 8 7 9 11 11 11 9 10 8 8 8 7 8 8 8 6 7 8 7 7 7 7 6
2 2 4 5 5 5 5 5 6 6 7 7 8 9 10 9 9 7 6 7 9 9 9 9 9 9 10 11 9 10 10 10 10 10 11 10 11 9 10 12 11 11 10 9 10 10 8 8 9 8 8 8 9 10 8 7 8 8 9 8 7 7
1 2 3 4 5 5 5 4 4 4 5 6 6 8 8 8 7 7 6 6 7 8 8 9 8 10 10 11 9 10 10 9 9 10 11 11 12 11 8 7 10 11 12 9 9 8 8 9 8 8 8 9 9 10 9 8 7 6 7 8 8 7
3 3 4 4 5 5 6 6 6 6 6 7 7 7 8 7 6 6 5 6 7 6 7 8 8 10 10 10 8 10 9 9 9 9 10 10 10 10 10 8 7 11 11 9 10 9 9 9 9 9 8 7 7 8 8 7 7 7 7 7 7 6
2 3 4 5 7 8 8 8 8 7 7 8 7 7 6 5 4 5 6 6 7 7 7 8 8 9 9 9 8 9 9 9 8 9 9 12 13 10 10 12 9 9 9 8 10 10 9 8 8 8 9 8 8 7 7 7 7 7 7 7 6 5
6 6 6 7 7 9 9 8 7 6 6 6 5 5 4 5 5 5 5 5 6 7 7 7 8 7 8 8 8 7 8 9 9 9 10 9 13 13 10 9 10 6 8 9 9 9 10 9 8 9 9 8 8 8 8 8 8 8 7 6 6 6
6 6 7 7 6 7 7 6 6 6 5 5 3 2 3 3 5 5 5 6 6 6 6 6 4 5 6 6 7 8 8 8 8 8 7 8 12 13 12 13 11 8 7 9 8 8 8 8 8 8 8 8 8 8 8 8 9 8 8 7 6 6
7 7 7 7 6 7 8 8 6 4 3 2 3 4 5 5 5 5 5 5 6 6 5 5 4 4 6 7 7 7 8 8 8 8 7 7 8 9 11 10 8 10 9 8 8 9 7 7 7 6 8 9 8 7 8 8 9 9 9 8 7 6
7 7 7 7 8 9 8 8 8 7 6 6 5 6 4 5 5 6 6 6 5 4 5 5 5 6 6 7 8 8 9 8 9 9 8 8 10 10 8 6 6 8 11 10 8 7 5 5 4 9 12 9 9 9 7 7 8 8 8 9 8 7
6 6 8 9 10 10 9 8 9 9 8 8 7 7 6 5 5 5 5 6 4 5 5 6 6 6 7 7 7 7 9 9 8 9 9 9 10 11 10 8 9 8 8 10 9 9 6 5 5 13 12 11 11 9 9 9 8 8 8 8 8 8
6 8 10 10 10 10 9 10 10 10 11 8 8 6 6 6 6 6 5 4 5 5 5 5 7 6 7 7 7 7 9 10 9 9 11 10 11 7 7 9 9 9 9 7 8 8 7 6 10 14 14 13 12 9 8 8 8 7 7 7 7 7
9 9 8 7 8 10 12 10 9 11 11 9 8 7 7 7 7 6 6 6 6 7 6 6 7 7 7 7 8 7 8 10 10 10 10 10 9 8 9 8 9 8 8 8 9 8 7 7 13 14 14 14 13 12 9 7 7 7 7 7 7 7
6 6 6 7 8 9 8 10 10 8 10 9 8 8 8 7 7 7 6 7 7 7 7 8 7 7 8 8 8 8 9 9 11 9 9 8 7 7 8 6 8 8 9 8 9 8 8 8 13 15 15 14 14 13 9 7 8 7 7 7 6 6
5 5 6 8 8 7 7 8 7 6 8 9 9 7 8 7 7 8 8 7 7 8 8 8 9 9 8 8 9 9 9 10 9 8 6 7 8 8 8 8 7 7 6 7 7 8 8 7 15 15 15 15 14 13 10 7 7 7 7 6 6 6
7 7 7 6 6 6 7 8 8 8 10 8 8 8 8 9 9 8 8 8 9 9 9 9 9 9 9 10 9 9 9 9 10 10 6 6 4 4 4 4 4 8 8 5 6 8 8 9 15 15 15 16 16 14 7 7 7 7 7 6 6 5
7 6 4 5 7 7 8 7 9 8 9 10 8 8 7 8 8 9 9 9 9 9 10 10 10 10 11 10 11 10 10 11 10 6 7 7 6 7 6 6 6 5 8 10 7 7 8 9 13 15 16 16 17 10 6 6 6 6 7 6 6 5
3 3 5 6 7 7 6 8 9 9 8 10 9 9 9 9 9 10 9 9 9 10 10 10 10 10 10 11 11 11 9 7 5 6 6 8 11 8 7 7 7 5 5 8 7 7 9 9 12 16 16 16 15 9 7 6 7 6 6 6 6 5
3 3 4 5 6 7 9 9 10 9 9 10 11 10 10 10 9 11 11 10 9 9 9 8 8 9 10 10 9 9 10 10 8 5 5 4 4 7 6 7 7 6 5 5 7 9 8 9 12 16 15 16 14 9 6 6 6 7 6 6 6 5
6 4 6 8 7 8 9 10 9 9 10 9 10 11 11 12 13 11 9 8 8 9 8 7 8 8 9 9 8 7 6 5 6 7 7 6 5 7 6 6 6 8 6 6 6 7 7 9 9 12 16 15 14 11 6 6 7 7 8 6 6 6
6 7 7 3 6 8 8 8 9 9 9 8 8 10 9 7 6 7 9 8 8 8 7 6 8 10 8 8 8 8 7 5 8 8 8 8 6 7 7 7 6 6 6 4 4 6 6 7 10 11 15 14 14 13 9 6 5 6 7 7 6 5
4 4 3 4 7 7 8 8 8 7 7 8 10 7 5 7 7 7 9 8 8 6 6 7 6 7 8 7 8 9 7 5 7 7 8 5 7 10 10 8 6 6 5 5 4 5 5 7 10 10 13 14 14 13 11 5 6 6 7 7 6 6
4 4 4 4 7 8 8 9 8 7 5 8 7 6 7 7 7 8 8 7 7 7 8 7 8 7 6 7 8 10 8 6 7 6 6 9 8 11 11 7 6 6 7 6 4 4 4 8 9 12 11 14 14 14 12 8 6 11 6 6 7 7
3 4 3 3 4 5 5 9 8 7 7 6 5 6 6 6 6 6 7 6 7 7 7 6 7 6 5 7 7 7 7 7 7 6 7 6 8 9 8 7 7 6 6 7 6 5 5 8 8 11 13 12 14 14 13 11 11 11 5 4 3 4
6 5 3 4 3 4 3 4 7 7 7 3 6 4 6 6 7 7 7 7 7 6 6 6 5 6 6 6 7 8 8 9 8 8 6 8 7 7 7 8 7 7 7 7 7 7 6 8 8 8 11 14 14 14 13 12 12 12 10 5 3 4
4 5 5 4 4 3 3 2 4 8 4 5 6 7 7 8 8 8 7 7 6 7 7 8 7 6 6 7 6 6 7 8 9 7 8 7 6 6 6 7 7 7 7 6 7 7 8 8 8 7 9 11 12 12 14 14 14 13 11 6 4 6
5 5 4 5 2 2 2 2 1 2 4 6 5 7 8 8 8 8 8 8 6 7 6 8 6 6 6 6 6 5 6 6 7 7 8 8 8 8 7 7 8 8 8 8 8 7 7 7 8 8 8 10 11 10 11 11 11 13 12 7 6 8
4 6 4 4 3 2 2 3 3 4 6 5 6 7 8 8 8 6 7 6 5 5 6 6 9 9 6 7 7 7 7 6 7 10 10 12 12 12 10 10 10 11 10 9 8 7 6 6 6 9 10 11 11 11 11 11 10 11 10 8 8 7
6 6 5 4 3 3 5 5 3 3 5 4 6 7 8 6 7 7 8 6 4 5 5 5 5 5 5 5 5 4 5 8 9 9 6 7 5 6 8 10 10 7 7 7 10 10 8 6 8 12 13 13 17 14 14 13 12 10 11 11 13 9
6 7 6 4 3 4 5 5 3 2 2 4 4 6 7 7 6 7 6 5 5 4 5 4 5 4 4 5 5 5 2 3 3 2 3 6 4 4 4 3 4 4 6 8 7 8 11 16 15 15 21 21 21 20 17 12 15 15 10 14 19 9
4 6 6 4 4 5 5 4 3 3 2 1 2 3 6 6 5 5 4 5 4 5 5 4 5 5 4 4 4 4 4 4 3 4 2 3 2 3 3 5 4 3 5 7 7 9 8 5 6 17 21 23 22 22 20 18 17 17 17 19 14 8
5 5 6 4 4 6 5 5 3 2 2 2 2 2 4 5 5 5 5 4 4 6 5 4 4 5 5 4 4 5 5 5 5 3 4 4 3 3 5 4 5 7 10 11 9 7 3 6 10 16 20 21 21 22 20 18 18 18 20 20 14 7
3 4 4 4 5 6 5 5 3 2 2 2 2 3 5 4 3 4 4 4 5 5 6 4 5 5 5 5 6 6 6 6 6 6 5 4 6 6 7 7 7 7 8 11 11 13 8 5 9 16 20 20 21 20 19 18 18 19 19 20 11 6
5 5 5 6 8 7 6 5 2 2 2 2 2 3 3 3 3 3 4 5 5 5 5 5 4 5 4 5 4 5 5 5 4 4 4 5 4 4 5 7 9 10 11 12 13 14 14 12 14 16 19 20 20 20 19 18 14 18 21 17 9 8
6 5 5 7 7 6 5 5 2 0 1 3 4 4 4 4 4 2 3 6 6 4 4 4 4 4 4 4 5 5 5 5 4 4 5 6 6 7 6 5 6 9 12 9 11 14 16 15 16 18 19 21 20 21 20 18 11 11 12 11 10 7
8 5 5 6 6 6 5 4 2 1 0 2 4 4 4 4 4 3 3 3 4 3 3 3 4 4 4 4 5 4 4 5 5 6 4 4 4 4 3 2 3 4 7 10 9 12 14 15 17 19 20 20 22 22 23 12 8 7 7 12 8 7
Wind_Direction
214 215 222 220 227 236 241 240 226 219 221 220 216 215 211 210 210 210 209 207 203 202 201 199 201 203 202 202 199 190 190 183 179 174 173 159 159 165 161 150 154 161 160 157 144 132 133 134 141 154 160 158 151 145 134 135 139 137 139 144 144 138
234 228 221 218 216 218 221 225 222 223 223 222 225 226 216 212 212 206 205 206 203 197 195 197 196 193 193 196 193 187 187 182 176 171 165 170 161 163 155 153 157 158 153 147 142 132 134 137 150 161 154 155 143 138 137 143 146 141 141 141 137 133
225 229 242 237 219 214 212 210 210 208 203 215 217 217 217 215 211 205 206 201 203 193 196 195 193 192 192 193 188 186 185 179 171 173 160 146 163 161 153 147 152 153 153 147 147 141 141 152 155 154 151 145 137 133 136 144 150 148 143 140 134 129
208 197 228 249 232 205 194 195 197 197 199 202 203 211 216 215 211 203 198 198 196 195 193 191 188 186 187 189 189 188 182 173 174 167 161 166 162 166 159 142 140 153 154 149 149 136 150 153 149 152 155 146 139 138 141 152 156 150 142 140 139 137
223 209 217 225 235 232 207 194 194 192 194 193 200 205 214 215 213 203 195 192 195 193 192 186 185 181 185 184 181 181 171 170 163 158 163 165 157 156 155 156 156 155 148 143 141 144 152 152 150 159 156 147 145 145 149 155 158 151 146 142 140 136
71 224 224 226 227 229 221 215 203 194 193 196 198 207 209 207 209 201 198 197 197 191 183 184 180 180 182 185 181 176 171 163 161 161 161 157 156 147 140 147 151 148 152 139 141 150 152 152 153 157 152 146 146 145 149 155 152 144 139 136 135 140
192 205 217 227 227 227 221 216 213 210 211 205 207 209 209 203 197 188 190 185 186 186 186 184 178 183 184 182 173 171 160 159 155 157 153 147 149 150 145 147 154 153 149 147 147 152 154 153 156 149 144 139 140 142 143 145 136 128 125 124 126 138
190 197 203 214 222 221 221 221 221 219 217 213 210 213 202 185 180 192 185 187 159 170 186 181 180 184 180 170 164 160 156 150 153 153 155 156 147 145 156 153 165 162 146 139 143 150 147 147 151 142 140 141 135 136 135 130 125 121 116 117 126 133
213 217 209 207 214 220 222 223 221 217 217 211 201 199 191 184 179 181 180 185 178 183 190 178 184 175 167 162 155 146 147 150 148 155 159 162 150 150 153 159 154 145 138 134 139 146 145 147 144 140 138 140 140 138 135 128 123 118 112 118 123 118
211 208 213 206 212 218 225 229 227 218 220 214 167 141 112 153 157 151 144 164 174 187 183 180 162 155 152 145 144 148 148 144 147 152 150 155 151 148 155 160 155 143 126 133 139 139 143 144 139 137 139 141 143 140 134 132 128 122 119 121 122 117
213 213 208 211 204 210 218 221 221 219 217 244 119 175 180 170 173 176 173 178 185 185 168 150 137 128 135 138 140 141 143 146 142 141 151 158 145 145 150 151 134 134 126 128 134 140 144 144 144 146 148 144 143 139 134 132 130 130 132 131 125 124
211 208 205 204 205 207 204 212 214 210 204 195 184 191 181 163 179 174 174 181 179 152 144 141 138 138 136 140 148 150 143 141 144 142 146 151 152 144 123 114 120 127 139 138 140 141 138 134 114 150 153 151 146 143 134 128 131 135 138 136 133 133
221 213 214 215 207 203 197 197 204 201 202 199 189 186 171 171 169 178 178 177 154 147 141 143 142 142 145 146 142 148 145 141 142 139 137 140 145 133 140 135 133 138 141 141 143 145 137 131 142 155 157 150 139 135 136 137 136 138 138 140 142 142
222 219 221 215 209 199 195 195 196 196 201 188 188 179 168 168 170 171 174 151 141 142 148 150 144 144 143 139 143 149 142 137 140 143 143 145 142 131 130 143 144 139 140 133 136 139 141 140 155 158 155 152 144 136 134 134 137 142 139 142 142 141
217 218 221 210 203 206 206 190 180 198 195 183 181 163 169 172 167 164 154 149 154 155 153 150 152 143 140 144 143 146 142 139 142 144 150 155 144 125 141 142 139 143 139 138 140 135 133 137 160 157 154 153 147 137 129 132 136 135 138 138 141 143
214 219 220 215 214 211 196 186 192 182 186 178 166 167 165 169 166 159 152 156 165 160 155 152 146 142 145 145 144 145 145 148 153 154 151 139 141 147 137 135 141 140 146 145 138 135 140 142 159 155 153 150 147 141 127 127 131 127 129 135 140 144
215 201 208 215 207 194 180 188 183 159 171 170 172 173 167 175 165 169 165 163 162 162 158 156 156 153 150 149 151 150 153 156 153 154 147 150 153 152 153 149 146 147 141 135 132 133 137 147 154 152 152 152 148 135 122 125 122 123 127 130 135 143
208 207 211 179 173 179 181 177 162 162 181 172 174 174 178 174 178 175 170 171 172 170 168 163 161 158 156 157 159 162 162 163 162 157 149 143 128 119 115 117 124 144 139 130 127 127 133 146 155 153 154 152 146 136 126 129 130 128 131 134 138 142
204 212 161 161 171 167 181 159 162 162 165 172 177 175 175 179 183 185 182 183 175 173 172 171 166 165 166 167 169 172 168 162 166 157 156 148 148 147 153 145 140 139 142 149 147 135 136 147 157 156 157 155 147 138 132 131 126 130 136 143 144 147
175 135 173 156 167 165 148 151 163 160 158 173 174 176 183 186 192 191 186 191 182 181 178 177 172 168 170 173 178 173 171 166 148 153 163 159 161 157 150 143 137 142 150 156 148 149 141 148 158 161 163 157 154 144 139 139 135 135 140 142 150 151
161 147 139 151 159 167 157 158 157 159 166 175 180 183 187 193 194 191 192 189 179 181 178 174 171 172 172 177 178 173 167 167 163 135 150 143 123 145 128 142 140 140 145 151 134 142 136 141 156 164 164 161 157 148 140 138 135 140 150 154 156 161
123 134 168 186 181 151 157 158 166 170 171 173 177 186 195 196 197 197 190 183 173 174 174 172 171 172 173 175 167 164 160 138 141 159 151 147 143 140 141 142 144 136 141 143 150 150 147 149 160 168 167 165 164 159 143 144 146 154 157 161 161 161
182 176 184 157 135 150 153 159 160 174 177 169 175 197 198 184 173 183 187 181 173 173 173 173 176 173 174 171 166 156 153 145 150 148 155 150 139 135 137 133 130 124 126 134 140 157 148 155 159 169 169 170 171 167 157 159 160 151 153 157 163 170
141 115 111 133 146 148 158 159 168 171 170 176 198 190 144 145 164 168 180 175 177 170 169 174 169 169 165 159 154 154 144 136 143 147 150 132 138 145 144 136 139 142 136 133 143 148 150 158 164 166 174 175 177 177 171 162 168 161 149 149 165 172
156 147 137 144 153 157 158 160 168 177 168 195 193 158 155 157 156 163 166 168 162 165 167 167 164 161 157 155 156 153 139 134 141 137 134 143 133 124 131 142 141 140 144 145 151 155 158 167 168 171 173 179 180 181 180 172 154 162 157 161 171 179
105 108 110 130 147 156 162 169 167 173 181 193 139 136 128 133 124 144 153 155 158 153 158 152 151 142 134 145 139 138 130 136 130 137 151 146 146 148 149 160 157 152 152 157 155 159 166 173 175 179 180 181 182 183 182 180 173 170 165 168 169 161
136 122 126 151 155 167 169 171 164 165 181 143 125 132 137 142 144 151 153 152 149 147 137 136 137 138 138 140 148 145 149 152 153 150 158 157 158 158 157 161 165 166 161 160 163 167 167 175 177 179 186 186 186 187 186 183 180 176 170 171 166 167
119 133 139 151 166 162 168 162 162 167 166 126 141 137 137 143 148 152 151 142 142 136 136 133 134 138 142 148 159 155 158 154 162 158 158 168 169 165 157 157 164 165 167 170 170 170 168 171 173 176 185 187 188 190 191 188 186 183 182 165 173 170
126 143 147 150 164 138 136 106 78 100 115 139 136 130 138 147 153 147 143 147 141 140 144 149 152 151 152 159 158 162 159 160 165 157 161 173 171 174 172 165 171 172 177 179 177 166 157 168 179 178 182 185 187 189 187 189 190 187 179 172 176 175
136 134 139 140 133 112 102 89 70 107 116 120 132 140 142 146 154 146 150 140 142 153 162 160 161 158 162 171 168 165 168 175 179 178 182 180 178 175 180 179 182 184 181 177 163 150 160 181 183 189 188 187 184 182 181 184 180 180 178 178 178 167
142 138 124 119 109 97 92 75 81 103 129 133 135 146 148 141 141 119 121 136 140 150 158 160 158 172 164 164 178 186 179 179 185 190 202 208 199 192 175 179 189 190 181 159 155 159 175 182 198 210 194 186 181 173 172 178 181 178 184 185 165 142
125 133 123 110 107 100 93 91 88 95 106 137 142 153 146 143 130 133 144 149 156 147 162 164 167 168 160 163 177 175 184 345 338 338 196 197 203 245 277 298 224 194 174 181 199 184 168 187 205 188 185 187 187 190 187 181 178 178 166 166 161 146
111 102 101 109 102 98 95 92 78 78 85 101 153 148 141 138 141 141 139 154 167 164 162 158 160 170 171 173 169 171 173 174 198 234 303 6 158 170 173 205 203 184 199 198 178 209 277 360 99 165 183 187 191 191 192 190 187 179 174 162 151 159
120 116 124 117 102 94 93 82 67 53 61 57 59 90 126 148 152 155 158 162 148 152 167 164 161 154 169 173 176 180 176 180 176 186 192 188 184 199 198 200 185 200 195 194 201 196 199 201 185 177 183 187 190 191 190 187 183 180 177 174 161 154
111 99 112 118 112 88 78 80 67 54 63 67 76 110 141 159 159 140 141 146 150 158 169 165 168 174 177 173 173 185 187 191 189 185 181 174 189 204 211 208 199 202 202 194 194 200 204 194 188 186 184 185 188 187 186 185 184 181 181 170 171 184
107 114 122 107 93 97 100 106 87 63 42 83 101 118 143 142 141 138 159 163 161 157 169 175 176 178 181 186 182 188 189 202 201 197 167 159 169 184 212 219 210 203 196 197 193 192 196 194 187 187 183 182 183 185 181 181 184 185 189 183 181 184
117 110 115 116 113 108 113 131 146 260 103 128 126 131 128 138 125 126 119 142 160 170 169 173 175 178 180 178 185 191 193 200 203 202 194 195 187 190 190 188 192 202 198 193 196 196 197 194 187 182 181 181 180 180 180 175 179 185 198 193 199 200
88 95 94 86 90 109 123 135 173 147 75 112 134 129 132 124 123 135 150 157 174 176 171 174 177 178 182 184 190 191 193 196 195 200 209 199 200 203 183 149 170 172 196 192 193 195 195 190 181 180 181 183 184 183 178 178 195 195 198 195 185 193